Preview of NWS' New Version of Forecast
This preview is not operational and should not be used for support decisions.

Regional Weather Roundup (RWR)

Issued by Gray - Portland, ME (GYX)

                            
970 
ASUS41 KGYX 201905
RWRGYX
WEATHER ROUNDUP FOR MAINE AND NEW HAMPSHIRE
NATIONAL WEATHER SERVICE GRAY ME
300 PM EDT SUN MAY 20 2018

MEZ002-005-006-010-012-015-018-020-021-024-026-027-029-202000-
MAINE
  
CITY           SKY/WX    TMP DP  RH WIND       PRES   REMARKS
PORTLAND       CLOUDY    73  63  70 VRB7      29.81R                  
SANFORD        LGT RAIN  72  65  78 W12       29.83R                  
BAR HARBOR     CLOUDY    63  62  97 S7        29.79S                  
WISCASSET      CLOUDY    71  65  81 VRB3      29.81S                  
ROCKLAND       CLOUDY    67  63  87 SW5       29.80R                  
FRYEBURG       FAIR      75  56  51 W15G24    29.83R                  
LEWISTONAUBURN PTSUNNY   74  59  59 W14G21    29.80F                  
AUGUSTA        PTSUNNY   73  59  61 W6        29.81R                  
BANGOR         PTSUNNY   69  59  70 NW8       29.80R                  
GREENVILLE       N/A     58  51  78 NW14G24   29.82R                  
MILLINOCKET    CLOUDY    66  52  60 NW9G21    29.80R                  
HOULTON        PTSUNNY   67  54  63 NW14      29.74R                  
PRESQUE ISLE   PTSUNNY   64  47  53 NW13G32   29.76R                  
FRENCHVILLE    FAIR      61  39  44 NW23      29.78R                  
CARIBOU        FAIR      65  46  50 NW12G23   29.75R                  
$$

NHZ002-005-008-009-011-012-014-202000-
NEW HAMPSHIRE
  
CITY           SKY/WX    TMP DP  RH WIND       PRES   REMARKS
PORTSMOUTH     CLOUDY    72  65  79 W9        29.81R                  
ROCHESTER      CLOUDY    73  65  75 VRB7      29.82R                  
NASHUA         PTSUNNY   75  68  78 NW15      29.85R                  
MANCHESTER     PTSUNNY   78  64  61 NW8       29.83S                  
CONCORD        CLOUDY    75  63  66 VRB7G17   29.84S                  
LACONIA        CLOUDY    71  60  68 W7G16     29.86S                  
PLYMOUTH       PTSUNNY   69  57  65 NW12      29.88R                  
BERLIN         CLOUDY    66  54  65 NW12G20   29.89R                  
WHITEFIELD     CLOUDY    66  55  67 NW13      29.91R                  
JAFFREY        CLOUDY    72  65  78 NW8G17    29.89R                  
KEENE          CLOUDY    71  65  81 CALM      29.88R                  
LEBANON        CLOUDY    70  58  65 N9        29.89R                  
MT WASHINGTON  FOG       43  43 100 NW40G54     N/A  VSB 1/16         
$$

VTZ005-007-008-202000-
VERMONT
  
CITY           SKY/WX    TMP DP  RH WIND       PRES   REMARKS
ST JOHNSBURY     N/A     64  54  69 MISG      29.91R                  
MONTPELIER     CLOUDY    62  56  80 NW12      29.98R                  
BURLINGTON     PTSUNNY   67  54  63 NW9       29.95R                  
$$

MAZ007-012-024-CTZ003-RIZ002-NYZ038-NYZ072-202000-
SOUTHERN NEW ENGLAND AND NY
  
CITY           SKY/WX    TMP DP  RH WIND       PRES   REMARKS
BOSTON         CLOUDY    79  65  62 W14G22    29.83R                  
WORCESTER      PTSUNNY   72  66  81 W15G24    29.88S                  
NANTUCKET      FOG       58  58 100 SW18      29.92F VSB 3/4          
PROVIDENCE     PTSUNNY   78  67  68 W13       29.87F                  
HARTFORD       PTSUNNY   79  64  60 NW8       29.87R                  
ALBANY         PTSUNNY   72  59  63 W16       29.93R                  
NEW YORK CITY  PTSUNNY   81  62  52 W10G21    29.92S                  
$$

ANZ081-ANZ082-ANZ150-NHZ014-MEZ023>029-202000-
COASTAL MARINE OBSERVATIONS
  
STATION/POSITION TIME  TEMP    WIND        PRES    WAVE
                       AIR SEA DIR/SP/G            HT/PER
                 (UTC) (F)     (DEG/KT/KT) (MB)    (FT/S)
MOUNT DESERT ROC 1900   49     220/ 14/ 15 1009.4R
MATINICUS ROCK   1800   52     230/ 12/ 13 1008.8F
ISLE OF SHOALS   1800   74     260/ 18/ 19 1008.9R
JEFFREYS LEDGE   1836      50                N/A     4/ 5
CASHES LEDGE BUO 1850   54 49              1009.2S   5/ 6
$$

.............KEY..............
   WCI - WIND CHILL
   TC  - TEMPERATURE IN CELSIUS
   VSB - VISIBILITY IN MILES
   HX  - HEAT INDEX
   FAIR- INDICATES FEW OR NO CLOUDS BELOW 12,000 FT, WITH NO 
         SIGNIFICANT WEATHER AND/OR OBSTRUCTIONS TO VISIBILITY.